| time (UTC) | temp F | wind direction | speed MPH | gust MPH | rain 1hr in | rain 24hr in | rain mn in | humidity % | barometer mb |
| 20260506211245 | 85 | 289 | 4.0 | 10.0 | 0.00 | 0.00 | 0.00 | 46 | 1006.9 |
| 20260506210742 | 85 | 277 | 7.0 | 8.0 | 0.00 | 0.00 | 0.00 | 45 | 1007.2 |
| 20260506210239 | 85 | 282 | 7.0 | 11.0 | 0.00 | 0.00 | 0.00 | 46 | 1007.3 |
| 20260506205736 | 85 | 305 | 6.0 | 8.0 | 0.00 | 0.00 | 0.00 | 45 | 1007.1 |
| 20260506205232 | 84 | 278 | 7.0 | 18.0 | 0.00 | 0.00 | 0.00 | 46 | 1007.1 |
| 20260506204729 | 85 | 271 | 12.0 | 16.0 | 0.00 | 0.00 | 0.00 | 46 | 1007.3 |
| 20260506204226 | 86 | 306 | 7.0 | 10.0 | 0.00 | 0.00 | 0.00 | 47 | 1007.2 |
| 20260506203724 | 85 | 33 | 3.0 | 3.0 | 0.00 | 0.00 | 0.00 | 47 | 1007.1 |
| 20260506203221 | 85 | 344 | 3.0 | 7.0 | 0.00 | 0.00 | 0.00 | 48 | 1007.1 |
| 20260506202719 | 85 | 307 | 4.0 | 7.0 | 0.00 | 0.00 | 0.00 | 49 | 1007.6 |
| 20260506202215 | 84 | 275 | 4.0 | 6.0 | 0.00 | 0.00 | 0.00 | 50 | 1007.4 |
| 20260506201712 | 83 | 301 | 4.0 | 7.0 | 0.00 | 0.00 | 0.00 | 50 | 1007.8 |
| 20260506201209 | 84 | 26 | 4.0 | 9.0 | 0.00 | 0.00 | 0.00 | 51 | 1007.9 |
| 20260506200706 | 84 | 56 | 1.0 | 2.0 | 0.00 | 0.00 | 0.00 | 49 | 1007.8 |
| 20260506200203 | 84 | 293 | 4.0 | 14.0 | 0.00 | 0.00 | 0.00 | 50 | 1007.7 |
| 20260506195659 | 83 | 277 | 5.0 | 8.0 | 0.00 | 0.00 | 0.00 | 50 | 1007.7 |
| 20260506195155 | 83 | 272 | 3.0 | 11.0 | 0.00 | 0.00 | 0.00 | 50 | 1007.8 |
| 20260506194653 | 83 | 140 | 3.0 | 6.0 | 0.00 | 0.00 | 0.00 | 48 | 1007.9 |
| 20260506194149 | 83 | 287 | 5.0 | 8.0 | 0.00 | 0.00 | 0.00 | 50 | 1008.3 |
| 20260506193647 | 82 | 289 | 5.0 | 7.0 | 0.00 | 0.00 | 0.00 | 49 | 1008.5 |
| 20260506193143 | 82 | 291 | 4.0 | 8.0 | 0.00 | 0.00 | 0.00 | 50 | 1008.7 |
| 20260506192640 | 81 | 284 | 5.0 | 8.0 | 0.00 | 0.00 | 0.00 | 50 | 1009.0 |
| 20260506192136 | 82 | 274 | 8.0 | 10.0 | 0.00 | 0.00 | 0.00 | 50 | 1008.6 |
| 20260506191633 | 82 | 34 | 2.0 | 6.0 | 0.00 | 0.00 | 0.00 | 50 | 1008.6 |
| 20260506191129 | 81 | 297 | 5.0 | 7.0 | 0.00 | 0.00 | 0.00 | 49 | 1008.7 |
| 20260506190627 | 81 | 291 | 3.0 | 6.0 | 0.00 | 0.00 | 0.00 | 50 | 1008.7 |
| 20260506190123 | 80 | 314 | 3.0 | 7.0 | 0.00 | 0.00 | 0.00 | 52 | 1009.1 |
| 20260506185621 | 80 | 286 | 6.0 | 8.0 | 0.00 | 0.00 | 0.00 | 50 | 1009.1 |
| 20260506185117 | 80 | 280 | 4.0 | 7.0 | 0.00 | 0.00 | 0.00 | 52 | 1009.0 |
| 20260506184614 | 80 | 334 | 3.0 | 6.0 | 0.00 | 0.00 | 0.00 | 51 | 1008.9 |
| 20260506184111 | 79 | 262 | 5.0 | 9.0 | 0.00 | 0.00 | 0.00 | 54 | 1009.0 |
| 20260506183608 | 79 | 298 | 5.0 | 9.0 | 0.00 | 0.00 | 0.00 | 52 | 1008.9 |
| 20260506183104 | 79 | 308 | 4.0 | 5.0 | 0.00 | 0.00 | 0.00 | 52 | 1009.1 |
| 20260506182602 | 80 | 333 | 3.0 | 8.0 | 0.00 | 0.00 | 0.00 | 52 | 1009.0 |
| 20260506182058 | 78 | 296 | 3.0 | 3.0 | 0.00 | 0.00 | 0.00 | 55 | 1009.3 |
| 20260506181556 | 77 | 279 | 3.0 | 6.0 | 0.00 | 0.00 | 0.00 | 58 | 1009.7 |
| 20260506181053 | 77 | 279 | 5.0 | 7.0 | 0.00 | 0.00 | 0.00 | 58 | 1009.8 |
| 20260506180550 | 77 | 237 | 4.0 | 7.0 | 0.00 | 0.00 | 0.00 | 63 | 1010.1 |
| 20260506180047 | 76 | 12 | 1.0 | 3.0 | 0.00 | 0.00 | 0.00 | 64 | 1010.1 |
| 20260506175543 | 76 | 304 | 5.0 | 6.0 | 0.00 | 0.00 | 0.00 | 64 | 1010.1 |
| 20260506175039 | 76 | 4 | 1.0 | 3.0 | 0.00 | 0.00 | 0.00 | 65 | 1010.1 |
| 20260506174538 | 75 | 321 | 3.0 | 5.0 | 0.00 | 0.00 | 0.00 | 65 | 1010.2 |
| 20260506174033 | 75 | 312 | 4.0 | 6.0 | 0.00 | 0.00 | 0.00 | 67 | 1010.5 |
| 20260506173532 | 75 | 263 | 4.0 | 6.0 | 0.00 | 0.00 | 0.00 | 65 | 1010.9 |
| 20260506173028 | 75 | 281 | 5.0 | 6.0 | 0.00 | 0.00 | 0.00 | 64 | 1010.8 |
| 20260506172526 | 75 | 270 | 6.0 | 8.0 | 0.00 | 0.00 | 0.00 | 68 | 1010.9 |
| 20260506172022 | 75 | 246 | 6.0 | 11.0 | 0.00 | 0.00 | 0.00 | 65 | 1010.9 |
| 20260506171519 | 75 | 278 | 5.0 | 6.0 | 0.00 | 0.00 | 0.00 | 66 | 1010.8 |
| 20260506171017 | 74 | 102 | 3.0 | 6.0 | 0.00 | 0.00 | 0.00 | 67 | 1011.0 |
| 20260506170514 | 74 | 337 | 3.0 | 6.0 | 0.00 | 0.00 | 0.00 | 67 | 1010.7 |
| 20260506170006 | 73 | 27 | 2.0 | 5.0 | 0.00 | 0.00 | 0.00 | 68 | 1010.7 |
| 20260506165504 | 73 | 315 | 4.0 | 6.0 | 0.00 | 0.00 | 0.00 | 69 | 1011.0 |
| 20260506165000 | 73 | 264 | 4.0 | 6.0 | 0.00 | 0.00 | 0.00 | 69 | 1011.1 |
| 20260506164456 | 73 | 243 | 6.0 | 7.0 | 0.00 | 0.00 | 0.00 | 70 | 1011.4 |
| 20260506163954 | 73 | 312 | 4.0 | 7.0 | 0.00 | 0.00 | 0.00 | 70 | 1011.5 |
| 20260506163449 | 73 | 297 | 4.0 | 5.0 | 0.00 | 0.00 | 0.00 | 70 | 1011.7 |
| 20260506162944 | 72 | 299 | 3.0 | 6.0 | 0.00 | 0.00 | 0.00 | 70 | 1011.5 |
| 20260506162442 | 72 | 268 | 4.0 | 6.0 | 0.00 | 0.00 | 0.00 | 70 | 1011.5 |
| 20260506161934 | 72 | 261 | 6.0 | 11.0 | 0.00 | 0.00 | 0.00 | 70 | 1011.7 |
| 20260506161432 | 72 | 257 | 6.0 | 9.0 | 0.00 | 0.00 | 0.00 | 70 | 1011.8 |
| 20260506160929 | 72 | 271 | 3.0 | 5.0 | 0.00 | 0.00 | 0.00 | 70 | 1011.5 |
| 20260506160426 | 72 | 266 | 4.0 | 8.0 | 0.00 | 0.00 | 0.00 | 69 | 1011.7 |
| 20260506155923 | 72 | 276 | 5.0 | 7.0 | 0.00 | 0.00 | 0.00 | 70 | 1011.8 |
| 20260506155420 | 72 | 255 | 5.0 | 6.0 | 0.00 | 0.00 | 0.00 | 70 | 1011.4 |
| 20260506153542 | 72 | 284 | 4.0 | 6.0 | 0.00 | 0.00 | 0.00 | 70 | 1011.2 |
| 20260506153040 | 72 | 277 | 6.0 | 9.0 | 0.00 | 0.00 | 0.00 | 71 | 1011.3 |
| 20260506152537 | 72 | 302 | 4.0 | 7.0 | 0.00 | 0.00 | 0.00 | 70 | 1011.2 |
| 20260506152035 | 71 | 275 | 4.0 | 6.0 | 0.00 | 0.00 | 0.00 | 71 | 1011.2 |
| 20260506151532 | 71 | 294 | 5.0 | 7.0 | 0.00 | 0.00 | 0.00 | 72 | 1011.1 |
| 20260506151029 | 71 | 293 | 3.0 | 6.0 | 0.00 | 0.00 | 0.00 | 72 | 1011.1 |
| 20260506150526 | 71 | 263 | 4.0 | 5.0 | 0.00 | 0.00 | 0.00 | 72 | 1011.1 |
| 20260506150023 | 71 | 302 | 4.0 | 5.0 | 0.00 | 0.00 | 0.00 | 72 | 1011.1 |
| 20260506145519 | 70 | 271 | 3.0 | 5.0 | 0.00 | 0.00 | 0.00 | 73 | 1010.9 |
| 20260506145017 | 70 | 303 | 4.0 | 5.0 | 0.00 | 0.00 | 0.00 | 73 | 1010.9 |
| 20260506144513 | 70 | 273 | 3.0 | 7.0 | 0.00 | 0.00 | 0.00 | 73 | 1010.9 |
| 20260506144011 | 70 | 309 | 3.0 | 5.0 | 0.00 | 0.00 | 0.00 | 72 | 1011.0 |
| 20260506143508 | 70 | 337 | 2.0 | 3.0 | 0.00 | 0.00 | 0.00 | 73 | 1011.0 |
| 20260506143007 | 69 | 301 | 4.0 | 6.0 | 0.00 | 0.00 | 0.00 | 73 | 1010.9 |
| 20260506142504 | 69 | 317 | 2.0 | 7.0 | 0.00 | 0.00 | 0.00 | 73 | 1011.1 |
| 20260506142002 | 69 | 306 | 3.0 | 7.0 | 0.00 | 0.00 | 0.00 | 74 | 1011.2 |
| 20260506141459 | 69 | 304 | 4.0 | 6.0 | 0.00 | 0.00 | 0.00 | 74 | 1011.0 |
| 20260506140958 | 68 | 300 | 4.0 | 5.0 | 0.00 | 0.00 | 0.00 | 73 | 1011.1 |
| 20260506140454 | 68 | 298 | 6.0 | 7.0 | 0.00 | 0.00 | 0.00 | 74 | 1011.1 |
| 20260506135951 | 68 | 330 | 3.0 | 6.0 | 0.00 | 0.00 | 0.00 | 74 | 1011.2 |
| 20260506135449 | 68 | 316 | 3.0 | 5.0 | 0.00 | 0.00 | 0.00 | 75 | 1011.2 |
| 20260506134944 | 68 | 349 | 2.0 | 5.0 | 0.00 | 0.00 | 0.00 | 74 | 1011.3 |
| 20260506134440 | 68 | 310 | 4.0 | 5.0 | 0.00 | 0.00 | 0.00 | 74 | 1011.2 |
| 20260506133938 | 67 | 301 | 5.0 | 5.0 | 0.00 | 0.00 | 0.00 | 75 | 1011.2 |
| 20260506133435 | 67 | 317 | 4.0 | 5.0 | 0.00 | 0.00 | 0.00 | 75 | 1011.2 |
| 20260506132931 | 67 | 318 | 3.0 | 5.0 | 0.00 | 0.00 | 0.00 | 75 | 1011.3 |
| 20260506132429 | 67 | 268 | 3.0 | 5.0 | 0.00 | 0.00 | 0.00 | 75 | 1011.3 |
| 20260506131926 | 67 | 294 | 3.0 | 5.0 | 0.00 | 0.00 | 0.00 | 75 | 1010.8 |
| 20260506131422 | 67 | 324 | 3.0 | 6.0 | 0.00 | 0.00 | 0.00 | 75 | 1011.0 |
| 20260506130920 | 66 | 335 | 3.0 | 6.0 | 0.00 | 0.00 | 0.00 | 76 | 1011.0 |
| 20260506130416 | 66 | 356 | 3.0 | 3.0 | 0.00 | 0.00 | 0.00 | 76 | 1010.8 |
| 20260506125914 | 66 | 45 | 1.0 | 2.0 | 0.00 | 0.00 | 0.00 | 76 | 1010.8 |
| 20260506125412 | 66 | 30 | 1.0 | 1.0 | 0.00 | 0.00 | 0.00 | 76 | 1011.0 |
| 20260506124910 | 65 | 359 | 2.0 | 2.0 | 0.00 | 0.00 | 0.00 | 76 | 1011.1 |
| 20260506124407 | 65 | 19 | 1.0 | 1.0 | 0.00 | 0.00 | 0.00 | 76 | 1011.1 |
| 20260506123905 | 65 | 29 | 0.0 | 1.0 | 0.00 | 0.00 | 0.00 | 77 | 1010.9 |
| 20260506123403 | 64 | 29 | 0.0 | 0.0 | 0.00 | 0.00 | 0.00 | 77 | 1011.0 |
| 20260506122900 | 64 | 31 | 0.0 | 1.0 | 0.00 | 0.00 | 0.00 | 77 | 1011.1 |
| 20260506122356 | 64 | 32 | 0.0 | 0.0 | 0.00 | 0.00 | 0.00 | 77 | 1011.1 |
| 20260506121855 | 64 | 29 | 1.0 | 2.0 | 0.00 | 0.00 | 0.00 | 77 | 1011.0 |
| 20260506121351 | 64 | 41 | 0.0 | 0.0 | 0.00 | 0.00 | 0.00 | 78 | 1010.8 |
| 20260506120848 | 63 | 41 | 0.0 | 0.0 | 0.00 | 0.00 | 0.00 | 78 | 1011.0 |
| 20260506120346 | 63 | 45 | 0.0 | 1.0 | 0.00 | 0.00 | 0.00 | 78 | 1010.9 |
| 20260506115843 | 63 | 51 | 0.0 | 0.0 | 0.00 | 0.00 | 0.00 | 78 | 1010.7 |
| 20260506115341 | 63 | 51 | 0.0 | 0.0 | 0.00 | 0.00 | 0.00 | 78 | 1010.8 |
| 20260506114839 | 63 | 51 | 0.0 | 0.0 | 0.00 | 0.00 | 0.00 | 78 | 1010.7 |
| 20260506114336 | 63 | 51 | 0.0 | 1.0 | 0.00 | 0.00 | 0.00 | 78 | 1010.5 |
| 20260506113835 | 63 | 51 | 0.0 | 1.0 | 0.00 | 0.00 | 0.00 | 78 | 1010.7 |
| 20260506113332 | 63 | 49 | 1.0 | 1.0 | 0.00 | 0.00 | 0.00 | 78 | 1010.6 |
| 20260506112829 | 63 | 45 | 0.0 | 0.0 | 0.00 | 0.00 | 0.00 | 78 | 1010.5 |
| 20260506112326 | 63 | 35 | 1.0 | 1.0 | 0.00 | 0.00 | 0.00 | 77 | 1010.3 |
| 20260506111823 | 63 | 44 | 0.0 | 1.0 | 0.00 | 0.00 | 0.00 | 77 | 1009.9 |
| 20260506111322 | 63 | 43 | 0.0 | 1.0 | 0.00 | 0.00 | 0.00 | 77 | 1009.8 |
| 20260506110819 | 63 | 84 | 1.0 | 2.0 | 0.00 | 0.00 | 0.00 | 77 | 1009.5 |
| 20260506110315 | 62 | 45 | 0.0 | 2.0 | 0.00 | 0.00 | 0.00 | 77 | 1009.6 |
| 20260506105812 | 63 | 35 | 0.0 | 1.0 | 0.00 | 0.00 | 0.00 | 77 | 1009.6 |
| 20260506105309 | 63 | 52 | 0.0 | 1.0 | 0.00 | 0.00 | 0.00 | 77 | 1009.5 |
| 20260506104807 | 63 | 60 | 0.0 | 1.0 | 0.00 | 0.00 | 0.00 | 77 | 1009.6 |
| 20260506104304 | 63 | 52 | 0.0 | 2.0 | 0.00 | 0.00 | 0.00 | 77 | 1009.9 |
| 20260506103801 | 62 | 43 | 0.0 | 1.0 | 0.00 | 0.00 | 0.00 | 77 | 1009.8 |
| 20260506103259 | 62 | 26 | 2.0 | 2.0 | 0.00 | 0.00 | 0.00 | 77 | 1009.5 |
| 20260506102756 | 62 | 31 | 0.0 | 1.0 | 0.00 | 0.00 | 0.00 | 77 | 1009.7 |
| 20260506102254 | 62 | 53 | 0.0 | 1.0 | 0.00 | 0.00 | 0.00 | 77 | 1009.5 |
| 20260506101751 | 62 | 45 | 0.0 | 0.0 | 0.00 | 0.00 | 0.00 | 78 | 1009.3 |
| 20260506101247 | 62 | 31 | 0.0 | 0.0 | 0.00 | 0.00 | 0.00 | 78 | 1009.4 |
| 20260506100745 | 62 | 51 | 0.0 | 1.0 | 0.00 | 0.00 | 0.00 | 78 | 1009.4 |
| 20260506100243 | 62 | 37 | 0.0 | 0.0 | 0.00 | 0.00 | 0.00 | 78 | 1009.6 |
| 20260506095742 | 62 | 35 | 0.0 | 2.0 | 0.00 | 0.00 | 0.00 | 78 | 1009.4 |
| 20260506095238 | 62 | 38 | 1.0 | 1.0 | 0.00 | 0.00 | 0.00 | 78 | 1009.5 |
| 20260506094734 | 62 | 50 | 0.0 | 0.0 | 0.00 | 0.00 | 0.00 | 79 | 1009.4 |
| 20260506094233 | 61 | 50 | 0.0 | 1.0 | 0.00 | 0.00 | 0.00 | 79 | 1009.6 |
| 20260506093731 | 61 | 50 | 0.0 | 0.0 | 0.00 | 0.00 | 0.00 | 79 | 1009.5 |
| 20260506093228 | 61 | 50 | 0.0 | 1.0 | 0.00 | 0.00 | 0.00 | 79 | 1009.5 |
| 20260506092726 | 61 | 50 | 0.0 | 1.0 | 0.00 | 0.00 | 0.00 | 79 | 1009.5 |
| 20260506092224 | 61 | 50 | 0.0 | 0.0 | 0.00 | 0.00 | 0.00 | 79 | 1009.8 |
| 20260506091721 | 61 | 50 | 0.0 | 0.0 | 0.00 | 0.00 | 0.00 | 79 | 1009.9 |
| 20260506091218 | 61 | 50 | 0.0 | 0.0 | 0.00 | 0.00 | 0.00 | 79 | 1010.1 |
| 20260506090716 | 61 | 50 | 0.0 | 0.0 | 0.00 | 0.00 | 0.00 | 79 | 1010.1 |
| 20260506090212 | 61 | 50 | 0.0 | 0.0 | 0.00 | 0.00 | 0.00 | 79 | 1010.3 |
| 20260506085709 | 61 | 50 | 0.0 | 0.0 | 0.00 | 0.00 | 0.00 | 78 | 1010.0 |
| 20260506085205 | 61 | 50 | 0.0 | 0.0 | 0.00 | 0.00 | 0.00 | 78 | 1010.1 |
| 20260506084703 | 61 | 50 | 0.0 | 0.0 | 0.00 | 0.00 | 0.00 | 78 | 1010.1 |
| 20260506084159 | 61 | 50 | 0.0 | 0.0 | 0.00 | 0.00 | 0.00 | 78 | 1009.9 |
| 20260506083656 | 61 | 50 | 0.0 | 0.0 | 0.00 | 0.00 | 0.00 | 77 | 1010.2 |
| 20260506083154 | 62 | 50 | 0.0 | 0.0 | 0.00 | 0.00 | 0.00 | 77 | 1010.3 |
| 20260506082651 | 62 | 50 | 0.0 | 0.0 | 0.00 | 0.00 | 0.00 | 77 | 1010.2 |
| 20260506082151 | 62 | 50 | 0.0 | 0.0 | 0.00 | 0.00 | 0.00 | 76 | 1010.5 |
| 20260506081649 | 62 | 50 | 0.0 | 0.0 | 0.00 | 0.00 | 0.00 | 76 | 1010.3 |
| 20260506081147 | 62 | 50 | 0.0 | 0.0 | 0.00 | 0.00 | 0.00 | 76 | 1010.5 |
| 20260506080644 | 62 | 50 | 0.0 | 0.0 | 0.00 | 0.00 | 0.00 | 76 | 1010.7 |
| 20260506080140 | 62 | 50 | 0.0 | 0.0 | 0.00 | 0.00 | 0.00 | 76 | 1010.6 |
| 20260506073125 | 62 | 50 | 0.0 | 1.0 | 0.00 | 0.00 | 0.00 | 75 | 1010.5 |
| 20260506072621 | 63 | 41 | 0.0 | 0.0 | 0.00 | 0.00 | 0.00 | 75 | 1010.6 |
| 20260506072119 | 63 | 41 | 0.0 | 0.0 | 0.00 | 0.00 | 0.00 | 74 | 1010.8 |
| 20260506071617 | 63 | 46 | 0.0 | 0.0 | 0.00 | 0.00 | 0.00 | 74 | 1010.5 |
| 20260506071114 | 63 | 46 | 0.0 | 1.0 | 0.00 | 0.00 | 0.00 | 74 | 1010.3 |
| 20260506070611 | 63 | 35 | 0.0 | 2.0 | 0.00 | 0.00 | 0.00 | 73 | 1010.6 |
| 20260506070108 | 64 | 35 | 0.0 | 0.0 | 0.00 | 0.00 | 0.00 | 73 | 1010.2 |
| 20260506062045 | 64 | 52 | 0.0 | 1.0 | 0.00 | 0.00 | 0.00 | 71 | 1010.1 |
| 20260506061541 | 64 | 80 | 2.0 | 2.0 | 0.00 | 0.00 | 0.00 | 71 | 1010.3 |
| 20260506061039 | 65 | 41 | 0.0 | 1.0 | 0.00 | 0.00 | 0.00 | 71 | 1010.5 |
| 20260506060537 | 65 | 57 | 1.0 | 3.0 | 0.00 | 0.00 | 0.00 | 71 | 1010.6 |
| 20260506051006 | 66 | 58 | 1.0 | 2.0 | 0.00 | 0.00 | 0.00 | 67 | 1010.7 |
| 20260506050503 | 66 | 45 | 1.0 | 2.0 | 0.00 | 0.00 | 0.00 | 67 | 1011.0 |
| 20260506044954 | 66 | 56 | 1.0 | 3.0 | 0.00 | 0.00 | 0.00 | 66 | 1010.9 |
| 20260506044452 | 67 | 64 | 1.0 | 2.0 | 0.00 | 0.00 | 0.00 | 65 | 1010.6 |
| 20260506043948 | 67 | 346 | 2.0 | 2.0 | 0.00 | 0.00 | 0.00 | 65 | 1010.6 |
| 20260506043445 | 67 | 72 | 2.0 | 2.0 | 0.00 | 0.00 | 0.00 | 65 | 1010.7 |
| 20260506042943 | 67 | 37 | 2.0 | 3.0 | 0.00 | 0.00 | 0.00 | 65 | 1010.9 |
| 20260506042443 | 67 | 52 | 1.0 | 3.0 | 0.00 | 0.00 | 0.00 | 64 | 1010.7 |
| 20260506041940 | 67 | 54 | 0.0 | 1.0 | 0.00 | 0.00 | 0.00 | 64 | 1010.8 |
| 20260506041438 | 67 | 65 | 2.0 | 2.0 | 0.00 | 0.00 | 0.00 | 64 | 1010.6 |
| 20260506040935 | 68 | 59 | 1.0 | 2.0 | 0.00 | 0.00 | 0.00 | 64 | 1010.6 |
| 20260506040432 | 68 | 59 | 0.0 | 2.0 | 0.00 | 0.00 | 0.00 | 64 | 1010.7 |
| 20260506035928 | 68 | 62 | 1.0 | 2.0 | 0.00 | 0.00 | 0.00 | 64 | 1010.9 |
| 20260506035426 | 68 | 61 | 1.0 | 2.0 | 0.00 | 0.00 | 0.00 | 64 | 1010.6 |
| 20260506034922 | 68 | 52 | 0.0 | 2.0 | 0.00 | 0.00 | 0.00 | 65 | 1010.6 |
| 20260506034420 | 68 | 59 | 0.0 | 2.0 | 0.00 | 0.00 | 0.00 | 64 | 1010.6 |
| 20260506033917 | 68 | 78 | 1.0 | 2.0 | 0.00 | 0.00 | 0.00 | 64 | 1010.5 |
| 20260506033414 | 69 | 47 | 0.0 | 2.0 | 0.00 | 0.00 | 0.00 | 64 | 1010.4 |
| 20260506032911 | 69 | 63 | 3.0 | 3.0 | 0.00 | 0.00 | 0.00 | 64 | 1010.5 |
| 20260506032408 | 69 | 63 | 1.0 | 3.0 | 0.00 | 0.00 | 0.00 | 64 | 1010.6 |
| 20260506031905 | 69 | 79 | 1.0 | 2.0 | 0.00 | 0.00 | 0.00 | 64 | 1010.5 |
| 20260506031402 | 69 | 48 | 0.0 | 3.0 | 0.00 | 0.00 | 0.00 | 63 | 1010.5 |
| 20260506030859 | 69 | 33 | 1.0 | 2.0 | 0.00 | 0.00 | 0.00 | 64 | 1010.3 |
| 20260506030357 | 69 | 91 | 3.0 | 3.0 | 0.00 | 0.00 | 0.00 | 63 | 1010.4 |
| 20260506025854 | 69 | 53 | 0.0 | 3.0 | 0.00 | 0.00 | 0.00 | 63 | 1010.4 |
| 20260506025350 | 70 | 62 | 1.0 | 2.0 | 0.00 | 0.00 | 0.00 | 63 | 1010.2 |
| 20260506024847 | 70 | 55 | 1.0 | 2.0 | 0.00 | 0.00 | 0.00 | 63 | 1010.2 |
| 20260506024344 | 70 | 50 | 1.0 | 1.0 | 0.00 | 0.00 | 0.00 | 62 | 1010.0 |
| 20260506023840 | 70 | 51 | 1.0 | 2.0 | 0.00 | 0.00 | 0.00 | 62 | 1010.0 |
| 20260506023337 | 70 | 56 | 0.0 | 1.0 | 0.00 | 0.00 | 0.00 | 61 | 1010.1 |
| 20260506022834 | 70 | 47 | 0.0 | 1.0 | 0.00 | 0.00 | 0.00 | 61 | 1010.0 |
| 20260506022332 | 71 | 55 | 0.0 | 2.0 | 0.00 | 0.00 | 0.00 | 60 | 1009.9 |
| 20260506021830 | 71 | 52 | 1.0 | 2.0 | 0.00 | 0.00 | 0.00 | 59 | 1009.9 |
| 20260506021326 | 71 | 80 | 2.0 | 3.0 | 0.00 | 0.00 | 0.00 | 58 | 1010.0 |
| 20260506020823 | 71 | 73 | 1.0 | 2.0 | 0.00 | 0.00 | 0.00 | 57 | 1010.2 |
| 20260506020321 | 71 | 59 | 0.0 | 2.0 | 0.00 | 0.00 | 0.00 | 55 | 1010.1 |
| 20260506015818 | 71 | 64 | 1.0 | 2.0 | 0.00 | 0.00 | 0.00 | 54 | 1009.9 |
| 20260506015316 | 71 | 48 | 1.0 | 2.0 | 0.00 | 0.00 | 0.00 | 54 | 1010.3 |
| 20260506014812 | 71 | 51 | 0.0 | 2.0 | 0.00 | 0.00 | 0.00 | 54 | 1010.1 |
| 20260506014309 | 70 | 52 | 0.0 | 0.0 | 0.00 | 0.00 | 0.00 | 57 | 1010.2 |
| 20260506013806 | 71 | 52 | 0.0 | 0.0 | 0.00 | 0.00 | 0.00 | 58 | 1009.8 |
| 20260506013303 | 71 | 52 | 0.0 | 0.0 | 0.00 | 0.00 | 0.00 | 52 | 1009.8 |
| 20260506012759 | 71 | 52 | 0.0 | 0.0 | 0.00 | 0.00 | 0.00 | 51 | 1009.7 |
| 20260506012256 | 71 | 52 | 0.0 | 0.0 | 0.00 | 0.00 | 0.00 | 50 | 1009.8 |
| 20260506011754 | 72 | 52 | 0.0 | 0.0 | 0.00 | 0.00 | 0.00 | 50 | 1009.4 |
| 20260506011250 | 72 | 52 | 0.0 | 0.0 | 0.00 | 0.00 | 0.00 | 49 | 1009.6 |
| 20260506010748 | 72 | 52 | 0.0 | 0.0 | 0.00 | 0.00 | 0.00 | 48 | 1009.5 |
| 20260506010245 | 73 | 52 | 0.0 | 0.0 | 0.00 | 0.00 | 0.00 | 48 | 1009.6 |
| 20260506005743 | 73 | 52 | 0.0 | 0.0 | 0.00 | 0.00 | 0.00 | 48 | 1009.3 |
| 20260506005239 | 73 | 52 | 0.0 | 0.0 | 0.00 | 0.00 | 0.00 | 48 | 1009.2 |
| 20260506004735 | 74 | 52 | 0.0 | 0.0 | 0.00 | 0.00 | 0.00 | 47 | 1009.4 |
| 20260506004233 | 74 | 52 | 0.0 | 0.0 | 0.00 | 0.00 | 0.00 | 46 | 1009.4 |
| 20260506003728 | 74 | 52 | 0.0 | 0.0 | 0.00 | 0.00 | 0.00 | 46 | 1009.3 |
| 20260506003225 | 75 | 52 | 0.0 | 0.0 | 0.00 | 0.00 | 0.00 | 45 | 1008.9 |
| 20260506002721 | 75 | 53 | 0.0 | 0.0 | 0.00 | 0.00 | 0.00 | 45 | 1009.2 |
| 20260506002218 | 75 | 52 | 0.0 | 0.0 | 0.00 | 0.00 | 0.00 | 44 | 1008.9 |
| 20260506001714 | 76 | 52 | 0.0 | 0.0 | 0.00 | 0.00 | 0.00 | 44 | 1009.0 |
| 20260506001211 | 76 | 52 | 0.0 | 0.0 | 0.00 | 0.00 | 0.00 | 43 | 1008.8 |
| 20260506000708 | 77 | 53 | 0.0 | 0.0 | 0.00 | 0.00 | 0.00 | 42 | 1008.8 |
| 20260506000206 | 77 | 53 | 0.0 | 0.0 | 0.00 | 0.00 | 0.00 | 41 | 1008.5 |
| 20260505235703 | 78 | 53 | 0.0 | 0.0 | 0.00 | 0.00 | 0.00 | 41 | 1008.7 |
| 20260505235201 | 78 | 51 | 0.0 | 1.0 | 0.00 | 0.00 | 0.00 | 40 | 1008.7 |
| 20260505234657 | 79 | 46 | 0.0 | 1.0 | 0.00 | 0.00 | 0.00 | 40 | 1008.8 |
| 20260505234154 | 79 | 21 | 1.0 | 2.0 | 0.00 | 0.00 | 0.00 | 40 | 1008.7 |
| 20260505233651 | 79 | 97 | 2.0 | 2.0 | 0.00 | 0.00 | 0.00 | 39 | 1008.8 |
| 20260505233149 | 79 | 335 | 3.0 | 5.0 | 0.00 | 0.00 | 0.00 | 38 | 1009.0 |
| 20260505232646 | 80 | 65 | 1.0 | 3.0 | 0.00 | 0.00 | 0.00 | 38 | 1008.8 |
| 20260505232144 | 80 | 72 | 1.0 | 3.0 | 0.00 | 0.00 | 0.00 | 38 | 1008.8 |
| 20260505231640 | 80 | 307 | 3.0 | 3.0 | 0.00 | 0.00 | 0.00 | 38 | 1008.7 |
| 20260505231139 | 80 | 287 | 3.0 | 3.0 | 0.00 | 0.00 | 0.00 | 38 | 1008.8 |
| 20260505230637 | 80 | 301 | 3.0 | 5.0 | 0.00 | 0.00 | 0.00 | 37 | 1009.1 |
| 20260505230132 | 80 | 25 | 2.0 | 5.0 | 0.00 | 0.00 | 0.00 | 38 | 1008.9 |
| 20260505225629 | 80 | 144 | 2.0 | 6.0 | 0.00 | 0.00 | 0.00 | 37 | 1008.8 |
| 20260505225125 | 80 | 345 | 3.0 | 3.0 | 0.00 | 0.00 | 0.00 | 38 | 1009.0 |
| 20260505224622 | 80 | 259 | 4.0 | 7.0 | 0.00 | 0.00 | 0.00 | 37 | 1009.1 |
| 20260505224120 | 80 | 251 | 4.0 | 6.0 | 0.00 | 0.00 | 0.00 | 37 | 1009.3 |
| 20260505223617 | 80 | 313 | 3.0 | 8.0 | 0.00 | 0.00 | 0.00 | 38 | 1008.9 |
| 20260505223113 | 81 | 296 | 6.0 | 7.0 | 0.00 | 0.00 | 0.00 | 37 | 1009.0 |
| 20260505222609 | 81 | 311 | 5.0 | 8.0 | 0.00 | 0.00 | 0.00 | 35 | 1009.3 |
| 20260505222106 | 81 | 184 | 3.0 | 6.0 | 0.00 | 0.00 | 0.00 | 36 | 1009.0 |
| 20260505221603 | 81 | 330 | 3.0 | 6.0 | 0.00 | 0.00 | 0.00 | 37 | 1009.1 |
| 20260505221059 | 81 | 121 | 3.0 | 5.0 | 0.00 | 0.00 | 0.00 | 36 | 1008.9 |
| 20260505220556 | 81 | 59 | 1.0 | 3.0 | 0.00 | 0.00 | 0.00 | 36 | 1009.0 |
| 20260505220054 | 80 | 76 | 1.0 | 3.0 | 0.00 | 0.00 | 0.00 | 37 | 1008.9 |
| 20260505215552 | 80 | 187 | 3.0 | 3.0 | 0.00 | 0.00 | 0.00 | 36 | 1008.9 |
| 20260505215049 | 80 | 288 | 4.0 | 6.0 | 0.00 | 0.00 | 0.00 | 37 | 1009.1 |
| 20260505214548 | 81 | 277 | 7.0 | 8.0 | 0.00 | 0.00 | 0.00 | 36 | 1009.0 |
| 20260505214044 | 80 | 104 | 2.0 | 3.0 | 0.00 | 0.00 | 0.00 | 37 | 1008.9 |
| 20260505213542 | 79 | 343 | 2.0 | 6.0 | 0.00 | 0.00 | 0.00 | 38 | 1009.1 |
| 20260505213038 | 80 | 307 | 5.0 | 8.0 | 0.00 | 0.00 | 0.00 | 37 | 1009.1 |
| 20260505212534 | 81 | 97 | 2.0 | 3.0 | 0.00 | 0.00 | 0.00 | 36 | 1009.3 |
| 20260505212032 | 80 | 331 | 3.0 | 6.0 | 0.00 | 0.00 | 0.00 | 38 | 1009.0 |
| 20260505211529 | 80 | 219 | 2.0 | 6.0 | 0.00 | 0.00 | 0.00 | 38 | 1009.4 |